WRC320 LGIR-LCLK

Flight info

Callsign WRC320
Flight time 1h 5m
Altitude 37000
Route SIT UM978 PERIM DCT TOSKA DCT BONEK
Aircraft A320/M-SDE3FGHIRWY/LB1

Departure

Time 2026-04-27 17:14
Airport Heraklion International Nikos Kazantzakis Airport (LGIR)

Arrival

Time 2026-04-27 18:19
Airport Larnaca International Airport (LCLK)
Time Latitude Longitude Altitude Speed Heading
2026-04-27 16:22 35.33881 25.17421 91 ft 0 kts 319°
2026-04-27 17:07 35.33884 25.17417 93 ft 0 kts 319°
2026-04-27 17:07 35.33896 25.17406 91 ft 3 kts 330°
2026-04-27 17:07 35.33913 25.17420 91 ft 6 kts 50°
2026-04-27 17:08 35.33912 25.17503 92 ft 12 kts 95°
2026-04-27 17:08 35.33905 25.17601 91 ft 11 kts 95°
2026-04-27 17:08 35.33899 25.17692 92 ft 13 kts 95°
2026-04-27 17:08 35.33890 25.17823 92 ft 16 kts 95°
2026-04-27 17:09 35.33880 25.17954 93 ft 14 kts 95°
2026-04-27 17:09 35.33872 25.18069 92 ft 13 kts 95°
2026-04-27 17:09 35.33865 25.18168 93 ft 11 kts 95°
2026-04-27 17:09 35.33859 25.18252 93 ft 9 kts 94°
2026-04-27 17:10 35.33853 25.18349 92 ft 14 kts 95°
2026-04-27 17:10 35.33843 25.18482 90 ft 16 kts 95°
2026-04-27 17:10 35.33834 25.18610 90 ft 14 kts 95°
2026-04-27 17:10 35.33826 25.18724 90 ft 13 kts 95°
2026-04-27 17:11 35.33819 25.18827 90 ft 11 kts 95°
2026-04-27 17:11 35.33818 25.18846 90 ft 0 kts 95°
2026-04-27 17:11 35.33817 25.18856 90 ft 5 kts 95°
2026-04-27 17:12 35.33858 25.18999 89 ft 13 kts 47°
2026-04-27 17:12 35.33910 25.18980 89 ft 4 kts 276°
2026-04-27 17:12 35.33911 25.18974 88 ft 0 kts 277°
2026-04-27 17:13 35.33916 25.18913 88 ft 34 kts 276°
2026-04-27 17:13 35.33958 25.18320 92 ft 103 kts 274°
2026-04-27 17:13 35.34035 25.17193 93 ft 157 kts 274°
2026-04-27 17:14 35.34131 25.15773 527 ft 168 kts 278°
2026-04-27 17:14 35.34441 25.14413 1283 ft 167 kts 306°
2026-04-27 17:14 35.35303 25.13490 1990 ft 170 kts 335°
2026-04-27 17:14 35.36534 25.13237 2300 ft 195 kts
2026-04-27 17:15 35.37810 25.14032 2652 ft 224 kts 46°
2026-04-27 17:15 35.38455 25.15865 3069 ft 254 kts 84°
2026-04-27 17:15 35.38010 25.18021 3719 ft 273 kts 121°
2026-04-27 17:15 35.36729 25.19774 4623 ft 280 kts 138°
2026-04-27 17:16 35.35268 25.21402 5563 ft 282 kts 125°
2026-04-27 17:16 35.34533 25.23546 6427 ft 279 kts 95°
2026-04-27 17:16 35.34350 25.25921 7334 ft 280 kts 92°
2026-04-27 17:16 35.34189 25.28324 8264 ft 281 kts 92°
2026-04-27 17:17 35.34032 25.30725 9178 ft 283 kts 92°
2026-04-27 17:17 35.33872 25.33138 10094 ft 285 kts 92°
2026-04-27 17:17 35.33706 25.35626 10561 ft 303 kts 92°
2026-04-27 17:18 35.33336 25.41099 11393 ft 337 kts 92°
2026-04-27 17:18 35.33133 25.43993 12109 ft 344 kts 92°
2026-04-27 17:18 35.32924 25.46945 12842 ft 349 kts 92°
2026-04-27 17:18 35.32710 25.49934 13577 ft 355 kts 92°
2026-04-27 17:19 35.32488 25.52996 14258 ft 360 kts 92°
2026-04-27 17:19 35.32270 25.56034 14822 ft 364 kts 92°
2026-04-27 17:19 35.32045 25.59152 15024 ft 365 kts 92°
2026-04-27 17:19 35.31821 25.62271 15335 ft 368 kts 92°
2026-04-27 17:20 35.31607 25.65354 16066 ft 370 kts 92°
2026-04-27 17:20 35.31402 25.68537 16768 ft 373 kts 91°
2026-04-27 17:20 35.31204 25.71710 17448 ft 376 kts 91°
2026-04-27 17:20 35.31006 25.74932 18121 ft 380 kts 91°
2026-04-27 17:21 35.30807 25.78183 18719 ft 384 kts 91°
2026-04-27 17:21 35.30605 25.81458 19289 ft 387 kts 91°
2026-04-27 17:21 35.30398 25.84750 19866 ft 391 kts 91°
2026-04-27 17:21 35.30185 25.88088 20450 ft 394 kts 91°
2026-04-27 17:22 35.29970 25.91439 21025 ft 397 kts 91°
2026-04-27 17:22 35.29753 25.94776 21583 ft 401 kts 91°
2026-04-27 17:22 35.29528 25.98240 22172 ft 404 kts 91°
2026-04-27 17:22 35.29305 26.01680 22742 ft 407 kts 91°
2026-04-27 17:23 35.29077 26.05148 23284 ft 411 kts 91°
2026-04-27 17:23 35.28845 26.08643 23777 ft 414 kts 91°
2026-04-27 17:23 35.28613 26.12168 24224 ft 417 kts 91°
2026-04-27 17:23 35.28377 26.15731 24653 ft 421 kts 91°
2026-04-27 17:24 35.28137 26.19310 25079 ft 424 kts 91°
2026-04-27 17:24 35.27895 26.22916 25491 ft 427 kts 91°
2026-04-27 17:24 35.27650 26.26541 25900 ft 430 kts 91°
2026-04-27 17:24 35.27403 26.30194 26296 ft 432 kts 91°
2026-04-27 17:25 35.27154 26.33885 26698 ft 435 kts 91°
2026-04-27 17:25 35.26901 26.37581 27074 ft 438 kts 91°
2026-04-27 17:25 35.26646 26.41304 27454 ft 441 kts 91°
2026-04-27 17:25 35.26390 26.45066 27838 ft 444 kts 91°
2026-04-27 17:26 35.26219 26.47568 28086 ft 446 kts 91°
2026-04-27 17:26 35.25957 26.51348 28441 ft 449 kts 91°
2026-04-27 17:26 35.25687 26.55215 28798 ft 451 kts 91°
2026-04-27 17:26 35.25426 26.58965 29142 ft 454 kts 91°
2026-04-27 17:27 35.25155 26.62859 29492 ft 456 kts 91°
2026-04-27 17:27 35.24878 26.66786 29812 ft 459 kts 91°
2026-04-27 17:27 35.24611 26.70570 30113 ft 462 kts 91°
2026-04-27 17:27 35.24333 26.74505 30360 ft 464 kts 91°
2026-04-27 17:28 35.24050 26.78476 30487 ft 468 kts 91°
2026-04-27 17:28 35.23764 26.82449 30705 ft 470 kts 91°
2026-04-27 17:28 35.23179 26.90458 31302 ft 469 kts 91°
2026-04-27 17:29 35.22887 26.94421 31601 ft 468 kts 91°
2026-04-27 17:29 35.22598 26.98381 31890 ft 468 kts 91°
2026-04-27 17:29 35.22312 27.02299 32184 ft 468 kts 91°
2026-04-27 17:29 35.22017 27.06301 32485 ft 467 kts 92°
2026-04-27 17:30 35.21720 27.10289 32778 ft 467 kts 92°
2026-04-27 17:30 35.21129 27.18220 33334 ft 467 kts 92°
2026-04-27 17:30 35.20841 27.22064 33627 ft 467 kts 92°
2026-04-27 17:31 35.20541 27.26052 33928 ft 467 kts 92°
2026-04-27 17:31 35.20240 27.30016 34178 ft 467 kts 92°
2026-04-27 17:31 35.19939 27.33962 34406 ft 468 kts 92°
2026-04-27 17:31 35.19635 27.37931 34634 ft 468 kts 92°
2026-04-27 17:32 35.19331 27.41877 34868 ft 469 kts 92°
2026-04-27 17:32 35.18717 27.49848 35293 ft 471 kts 92°
2026-04-27 17:32 35.18406 27.53841 35512 ft 471 kts 93°
2026-04-27 17:33 35.18093 27.57826 35715 ft 472 kts 93°
2026-04-27 17:33 35.17779 27.61816 35906 ft 473 kts 93°
2026-04-27 17:33 35.17463 27.65805 36100 ft 473 kts 93°
2026-04-27 17:33 35.17148 27.69794 36291 ft 474 kts 93°
2026-04-27 17:34 35.16832 27.73791 36488 ft 474 kts 93°
2026-04-27 17:34 35.16509 27.77841 36655 ft 475 kts 93°
2026-04-27 17:34 35.16195 27.81784 36840 ft 475 kts 93°
2026-04-27 17:34 35.15868 27.85881 36994 ft 476 kts 94°
2026-04-27 17:35 35.15544 27.89917 37025 ft 476 kts 94°
2026-04-27 17:35 35.14888 27.97981 37021 ft 476 kts 94°
2026-04-27 17:36 35.14227 28.05999 37017 ft 476 kts 94°
2026-04-27 17:36 35.13560 28.14098 37019 ft 476 kts 94°
2026-04-27 17:37 35.12895 28.22146 37020 ft 476 kts 94°
2026-04-27 17:37 35.12212 28.30256 37022 ft 476 kts 94°
2026-04-27 17:38 35.11527 28.38294 37027 ft 476 kts 94°
2026-04-27 17:38 35.10841 28.46311 37028 ft 476 kts 95°
2026-04-27 17:39 35.10153 28.54309 37024 ft 476 kts 95°
2026-04-27 17:39 35.09453 28.62393 37025 ft 476 kts 95°
2026-04-27 17:40 35.08757 28.70386 37019 ft 476 kts 95°
2026-04-27 17:40 35.08041 28.78459 37020 ft 476 kts 95°
2026-04-27 17:41 35.07321 28.86501 37020 ft 476 kts 95°
2026-04-27 17:41 35.06604 28.94547 37019 ft 476 kts 95°
2026-04-27 17:42 35.05889 29.02543 37020 ft 476 kts 95°
2026-04-27 17:42 35.05152 29.10646 37023 ft 477 kts 95°
2026-04-27 17:43 35.04403 29.18708 37020 ft 477 kts 95°
2026-04-27 17:43 35.03663 29.26751 37020 ft 477 kts 95°
2026-04-27 17:44 35.02925 29.34771 37018 ft 477 kts 95°
2026-04-27 17:44 35.02172 29.42827 37016 ft 477 kts 96°
2026-04-27 17:45 35.01414 29.50867 37015 ft 477 kts 96°
2026-04-27 17:45 35.00658 29.58899 37020 ft 477 kts 96°
2026-04-27 17:46 35.00378 29.66964 37017 ft 476 kts 86°
2026-04-27 17:46 35.00652 29.75025 37014 ft 476 kts 86°
2026-04-27 17:47 35.00920 29.83108 37012 ft 476 kts 86°
2026-04-27 17:47 35.01187 29.91169 37014 ft 476 kts 86°
2026-04-27 17:48 35.01451 29.99247 37011 ft 476 kts 86°
2026-04-27 17:48 35.01703 30.07317 37014 ft 476 kts 86°
2026-04-27 17:49 35.01955 30.15403 37009 ft 476 kts 86°
2026-04-27 17:49 35.02203 30.23477 37013 ft 476 kts 87°
2026-04-27 17:50 35.02445 30.31610 37013 ft 476 kts 87°
2026-04-27 17:50 35.02841 30.43711 37014 ft 476 kts 86°
2026-04-27 17:51 35.03116 30.51777 37018 ft 476 kts 86°
2026-04-27 17:51 35.03353 30.59838 37018 ft 476 kts 87°
2026-04-27 17:52 35.03556 30.67919 37019 ft 476 kts 87°
2026-04-27 17:52 35.03719 30.74617 37019 ft 476 kts 87°
2026-04-27 17:53 35.03909 30.82731 37011 ft 476 kts 87°
2026-04-27 17:53 35.04106 30.90858 37014 ft 476 kts 87°
2026-04-27 17:54 35.04312 30.98928 37001 ft 476 kts 87°
2026-04-27 17:54 35.04501 31.06986 37004 ft 476 kts 87°
2026-04-27 17:55 35.04681 31.15084 37012 ft 476 kts 87°
2026-04-27 17:55 35.04860 31.23167 37011 ft 476 kts 87°
2026-04-27 17:56 35.05034 31.31249 37012 ft 477 kts 87°
2026-04-27 17:56 35.05196 31.39329 37014 ft 477 kts 87°
2026-04-27 17:57 35.05350 31.47414 37022 ft 477 kts 88°
2026-04-27 17:57 35.05509 31.55500 37019 ft 476 kts 87°
2026-04-27 17:58 35.05663 31.63579 37019 ft 476 kts 88°
2026-04-27 17:58 35.05803 31.71662 37028 ft 476 kts 88°
2026-04-27 17:59 35.05939 31.79742 37014 ft 476 kts 88°
2026-04-27 17:59 35.06007 31.83781 36751 ft 475 kts 88°
2026-04-27 17:59 35.06074 31.87817 36497 ft 474 kts 88°
2026-04-27 18:00 35.06141 31.91833 36245 ft 474 kts 88°
2026-04-27 18:00 35.06206 31.95852 35990 ft 473 kts 88°
2026-04-27 18:00 35.06268 31.99870 35752 ft 473 kts 88°
2026-04-27 18:00 35.06327 32.03876 35459 ft 472 kts 88°
2026-04-27 18:01 35.06385 32.07890 34575 ft 477 kts 88°
2026-04-27 18:01 35.06442 32.11964 33589 ft 481 kts 88°
2026-04-27 18:01 35.06499 32.16052 32797 ft 479 kts 88°
2026-04-27 18:01 35.06557 32.20075 32322 ft 471 kts 88°
2026-04-27 18:02 35.06624 32.24040 31853 ft 464 kts 88°
2026-04-27 18:02 35.06685 32.27966 30677 ft 465 kts 87°
2026-04-27 18:02 35.06739 32.31910 29474 ft 463 kts 88°
2026-04-27 18:02 35.06787 32.35868 28382 ft 457 kts 88°
2026-04-27 18:03 35.06828 32.39711 27411 ft 449 kts 88°
2026-04-27 18:03 35.06866 32.43485 26501 ft 441 kts 88°
2026-04-27 18:03 35.06903 32.47145 25635 ft 433 kts 88°
2026-04-27 18:03 35.06941 32.50779 24790 ft 425 kts 88°
2026-04-27 18:04 35.06980 32.54401 23951 ft 418 kts 88°
2026-04-27 18:04 35.07017 32.57917 23070 ft 412 kts 88°
2026-04-27 18:04 35.07052 32.61394 22163 ft 406 kts 88°
2026-04-27 18:04 35.07087 32.64818 21297 ft 399 kts 88°
2026-04-27 18:05 35.07119 32.68183 20421 ft 394 kts 88°
2026-04-27 18:05 35.07146 32.71442 19590 ft 388 kts 88°
2026-04-27 18:05 35.07174 32.74775 18743 ft 383 kts 88°
2026-04-27 18:05 35.07199 32.78005 17886 ft 378 kts 88°
2026-04-27 18:06 35.07225 32.81190 17074 ft 371 kts 88°
2026-04-27 18:06 35.07250 32.84274 16637 ft 356 kts 88°
2026-04-27 18:06 35.07271 32.87238 16198 ft 342 kts 88°
2026-04-27 18:06 35.07290 32.90082 15809 ft 329 kts 88°
2026-04-27 18:07 35.07218 32.92823 15409 ft 319 kts 96°
2026-04-27 18:07 35.06759 32.95419 15017 ft 319 kts 107°
2026-04-27 18:07 35.06011 32.97993 14616 ft 318 kts 108°
2026-04-27 18:07 35.05274 33.00543 14222 ft 316 kts 108°
2026-04-27 18:08 35.04553 33.03060 13808 ft 316 kts 108°
2026-04-27 18:08 35.03824 33.05610 13365 ft 317 kts 108°
2026-04-27 18:08 35.03097 33.08156 12936 ft 318 kts 107°
2026-04-27 18:08 35.02575 33.10804 12511 ft 324 kts 97°
2026-04-27 18:09 35.02268 33.13526 12042 ft 324 kts 96°
2026-04-27 18:09 35.01982 33.16207 11643 ft 322 kts 95°
2026-04-27 18:09 35.01686 33.18948 11245 ft 320 kts 95°
2026-04-27 18:09 35.01392 33.21626 10853 ft 317 kts 95°
2026-04-27 18:10 35.01100 33.24243 10461 ft 315 kts 95°
2026-04-27 18:10 35.00798 33.26881 10309 ft 304 kts 95°
2026-04-27 18:10 35.00506 33.29384 10178 ft 293 kts 95°
2026-04-27 18:10 35.00217 33.31820 9912 ft 287 kts 95°
2026-04-27 18:11 34.99931 33.34190 9543 ft 285 kts 96°
2026-04-27 18:11 34.99639 33.36609 9162 ft 283 kts 94°
2026-04-27 18:11 34.99560 33.38986 8770 ft 279 kts 86°
2026-04-27 18:11 34.99604 33.41346 8370 ft 278 kts 85°
2026-04-27 18:12 34.99658 33.43603 7986 ft 276 kts 85°
2026-04-27 18:12 34.99720 33.46002 7573 ft 275 kts 85°
2026-04-27 18:12 34.99780 33.48333 7170 ft 273 kts 85°
2026-04-27 18:12 34.99840 33.50646 6775 ft 272 kts 85°
2026-04-27 18:13 34.99901 33.52938 6491 ft 266 kts 85°
2026-04-27 18:13 34.99958 33.55130 6367 ft 253 kts 85°
2026-04-27 18:13 35.00010 33.57225 6242 ft 241 kts 85°
2026-04-27 18:13 35.00056 33.59183 6007 ft 234 kts 86°
2026-04-27 18:14 35.00109 33.61170 5811 ft 227 kts 85°
2026-04-27 18:14 35.00158 33.63052 5670 ft 217 kts 85°
2026-04-27 18:14 35.00204 33.64840 5434 ft 207 kts 85°
2026-04-27 18:14 35.00252 33.66586 5041 ft 204 kts 85°
2026-04-27 18:15 35.00306 33.68307 4620 ft 203 kts 86°
2026-04-27 18:15 35.00365 33.70018 4198 ft 202 kts 89°
2026-04-27 18:15 35.00136 33.71691 3758 ft 202 kts 116°
2026-04-27 18:15 34.99172 33.72898 3320 ft 203 kts 155°
2026-04-27 18:16 34.97796 33.73210 2879 ft 204 kts 180°
2026-04-27 18:16 34.96373 33.73118 2439 ft 205 kts 185°
2026-04-27 18:16 34.94969 33.72857 1978 ft 204 kts 207°
2026-04-27 18:16 34.94052 33.71691 1670 ft 188 kts 254°
2026-04-27 18:17 34.93724 33.70215 1441 ft 175 kts 248°
2026-04-27 18:17 34.92909 33.69182 1229 ft 167 kts 218°
2026-04-27 18:17 34.92103 33.68259 1012 ft 153 kts 229°
2026-04-27 18:17 34.91392 33.67346 844 ft 146 kts 228°
2026-04-27 18:18 34.90698 33.66478 710 ft 142 kts 227°
2026-04-27 18:18 34.90010 33.65627 515 ft 140 kts 225°
2026-04-27 18:18 34.89325 33.64798 361 ft 138 kts 224°
2026-04-27 18:18 34.88650 33.63986 169 ft 136 kts 225°
2026-04-27 18:19 34.87997 33.63160 41 ft 134 kts 225°
2026-04-27 18:19 34.87384 33.62405 20 ft 103 kts 226°
2026-04-27 18:19 34.87000 33.61935 22 ft 53 kts 225°
2026-04-27 18:19 34.86820 33.61714 20 ft 32 kts 225°
2026-04-27 18:20 34.86669 33.61530 21 ft 29 kts 225°
2026-04-27 18:20 34.86561 33.61379 21 ft 22 kts 238°
2026-04-27 18:20 34.86499 33.61214 23 ft 22 kts 255°
2026-04-27 18:20 34.86481 33.61129 23 ft 0 kts 255°
2026-04-27 18:21 34.86477 33.61095 21 ft 9 kts 267°
2026-04-27 18:22 34.86533 33.61029 21 ft 14 kts 357°
2026-04-27 18:22 34.86611 33.61081 21 ft 12 kts
2026-04-27 18:22 34.86652 33.61058 21 ft 0 kts 320°
2026-04-27 18:22 34.86656 33.61053 20 ft 4 kts 314°
2026-04-27 18:23 34.86697 33.61005 20 ft 12 kts 316°
2026-04-27 18:23 34.86749 33.60945 20 ft 5 kts 331°
2026-04-27 18:23 34.86768 33.60962 20 ft 4 kts 70°
2026-04-27 18:23 34.86787 33.61015 20 ft 7 kts 63°
2026-04-27 18:24 34.86793 33.61029 20 ft 0 kts 63°